Wilmington, OH

8:02 AM EDT on March 29, 2017 (GMT -0400)
Airborne

Weather History for KILN - August, 2014

Change the Weather History Date:

Wednesday, August 20, 2014

  Actual Average (KFFO) Record (KFFO)
Temperature  
Mean Temperature 74 °F -  
Max Temperature 84 °F 81 °F 96 °F (2005)
Min Temperature 63 °F 60 °F 48 °F (1998)
Cooling Degree Days 8    
Growing Degree Days 24 (Base 50)    
Moisture  
Dew Point 66 °F    
Average Humidity 78    
Maximum Humidity 94    
Minimum Humidity 49    
Precipitation  
Precipitation 0.06 in - - ()
Sea Level Pressure  
Sea Level Pressure 29.91 in    
Wind  
Wind Speed 10 mph (WSW)    
Max Wind Speed 25 mph    
Max Gust Speed 32 mph    
Visibility 9 miles    
Events Rain , Thunderstorm    
Averages and records for this station are not official NWS values.
T = Trace of Precipitation, MM = Missing Value Source: NWS Daily Summary

Daily Weather History Graph

Daily Weather History Graph

Search for Another Location

Airport or City:

Trip Planner

Search our weather history database for the weather conditions in past years. The results will help you decide how hot, cold, wet, or windy it might be!

Date:

Astronomy

Aug. 20, 2014 Rise Set
Actual Time 6:52 AM EDT 8:23 PM EDT
Civil Twilight 6:24 AM EDT 8:52 PM EDT
Nautical Twilight 5:49 AM EDT 9:26 PM EDT
Astronomical Twilight 5:13 AM EDT 10:02 PM EDT
Moon 2:32 AM EDT (8/20) 5:07 PM EDT (8/20)
Length of Visible Light 14h 28m
Length of Day
13h 31m
Waning Crescent, 21% of the Moon is Illuminated
Aug 20
Waning Crescent
Aug 25
New
Sep 2
First Quarter
Sep 8
Full
Sep 15
Last Quarter

Hourly Weather History & Observations

Time (EDT) Temp. Heat Index Dew Point Humidity Pressure Visibility Wind Dir Wind Speed Gust Speed Precip Events Conditions
12:54 AM 72.0 °F - 66.9 °F 84% 29.83 in 6.0 mi South 5.8 mph - N/A   Haze
1:54 AM 72.0 °F - 68.0 °F 87% 29.81 in 6.0 mi South 6.9 mph - N/A   Mostly Cloudy
2:35 AM 75.0 °F - 68.0 °F 79% 29.85 in 6.0 mi West 17.3 mph 26.5 mph N/A Thunderstorm Haze
2:44 AM 73.0 °F - 64.0 °F 73% 29.87 in 9.0 mi WSW 25.3 mph 28.8 mph N/A Thunderstorm Thunderstorm
2:54 AM 69.1 °F - 64.0 °F 84% 29.84 in 10.0 mi WSW 17.3 mph 32.2 mph 0.00 in Rain , Thunderstorm Light Thunderstorms and Rain
3:17 AM 66.9 °F - 64.9 °F 93% 29.87 in 6.0 mi SW 10.4 mph - 0.04 in Rain , Thunderstorm Light Rain
3:25 AM 66.9 °F - 64.9 °F 93% 29.87 in 6.0 mi WSW 8.1 mph - 0.04 in Rain , Thunderstorm Light Thunderstorms and Rain
3:51 AM 66.2 °F - 64.4 °F 94% 29.86 in 10.0 mi West 10.4 mph - 0.06 in Rain Light Rain
3:54 AM 68.0 °F - 64.0 °F 87% 29.83 in 10.0 mi WSW 11.5 mph - 0.06 in Rain Light Rain
4:10 AM 66.9 °F - 64.0 °F 90% 29.88 in 10.0 mi WSW 12.7 mph - 0.00 in   Scattered Clouds
4:54 AM 64.9 °F - 63.0 °F 93% 29.83 in 10.0 mi Variable 3.5 mph - 0.00 in   Mostly Cloudy
5:54 AM 64.0 °F - 62.1 °F 93% 29.86 in 9.0 mi SSW 4.6 mph - N/A   Scattered Clouds
6:54 AM 63.0 °F - 61.0 °F 93% 29.87 in 9.0 mi SW 4.6 mph - N/A   Partly Cloudy
7:54 AM 64.0 °F - 62.1 °F 93% 29.90 in 7.0 mi SSW 4.6 mph - N/A   Mostly Cloudy
8:54 AM 69.1 °F - 64.9 °F 87% 29.91 in 10.0 mi SSW 8.1 mph - N/A   Clear
9:54 AM 73.0 °F - 66.0 °F 79% 29.91 in 10.0 mi SW 9.2 mph - N/A   Clear
10:54 AM 75.0 °F - 66.9 °F 76% 29.93 in 10.0 mi West 10.4 mph - N/A   Partly Cloudy
11:54 AM 79.0 °F - 70.0 °F 74% 29.93 in 10.0 mi WSW 9.2 mph - N/A   Scattered Clouds
12:39 PM 79.0 °F - 69.1 °F 72% 29.97 in 10.0 mi WSW 12.7 mph - N/A   Mostly Cloudy
12:51 PM 80.6 °F 83.9 °F 69.8 °F 70% 29.96 in 10.0 mi WSW 11.5 mph - N/A   Scattered Clouds
12:54 PM 81.0 °F 84.1 °F 69.1 °F 67% 29.93 in 10.0 mi WSW 11.5 mph - N/A   Partly Cloudy
1:54 PM 84.0 °F 86.5 °F 66.9 °F 56% 29.93 in 10.0 mi WSW 9.2 mph - N/A   Scattered Clouds
2:54 PM 84.0 °F 86.5 °F 66.9 °F 56% 29.94 in 10.0 mi West 9.2 mph - N/A   Partly Cloudy
3:54 PM 84.9 °F 86.1 °F 64.0 °F 49% 29.93 in 10.0 mi West 15.0 mph - N/A   Scattered Clouds
4:54 PM 84.0 °F 85.4 °F 64.0 °F 51% 29.94 in 10.0 mi West 13.8 mph - N/A   Clear
5:54 PM 82.9 °F 84.4 °F 64.0 °F 53% 29.93 in 10.0 mi West 10.4 mph - N/A   Clear
6:54 PM 82.0 °F 83.4 °F 64.0 °F 54% 29.91 in 10.0 mi WSW 5.8 mph - N/A   Clear
7:54 PM 78.1 °F - 64.9 °F 64% 29.92 in 10.0 mi SW 5.8 mph - N/A   Clear
8:54 PM 72.0 °F - 66.9 °F 84% 29.95 in 10.0 mi South 4.6 mph - 0.00 in   Clear
9:54 PM 72.0 °F - 66.9 °F 84% 30.00 in 10.0 mi SW 11.5 mph - N/A   Clear
10:54 PM 71.1 °F - 66.0 °F 84% 30.01 in 10.0 mi SW 6.9 mph - N/A   Partly Cloudy
11:54 PM 68.0 °F - 64.9 °F 90% 30.01 in 10.0 mi SW 6.9 mph - N/A   Clear